Regional Weather Roundup
Issued by NWS Lake Charles, LA

Current Version | Previous Version | Text Only | Print | Product List | Glossary On
Versions: 1 2 3 4 5 6 7 8 9 10 11 12 13 14 15 16 17 18 19 20 21 22 23 24 25 26 27 28 29 30 31 32 33 34 35 36 37 38 39 40 41 42 43 44 45 46 47 48 49
000 ASUS44 KLCH 041310 RWRLCH REGIONAL WEATHER ROUNDUP NATIONAL WEATHER SERVICE LAKE CHARLES LA 700 AM CST THU MAR 04 2021 Note: "fair" indicates few or no clouds below 12,000 feet with no significant weather and/or obstructions to visibility. ACROSS SOUTHEAST TEXAS CITY SKY/WX TMP DP RH WIND PRES REMARKS BEAUMONT CLEAR 43 43 100 CALM 30.18R BEAUMONT CITY FAIR 42 41 98 CALM 30.19 FOG ORANGE SUNNY 40 39 97 CALM 30.21R JASPER CLEAR 36 36 100 CALM 30.21R $$ ACROSS CENTRAL LOUISIANA CITY SKY/WX TMP DP RH WIND PRES REMARKS LEESVILLE CLEAR 36 36 99 CALM 30.20S FULLERTON FAIR 36 33 89 CALM 30.16R ALEXANDRIA INT CLEAR 39 37 92 CALM 30.17F ESLER FIELD CLEAR 34 33 96 CALM 30.18F DERIDDER FAIR 38 38 100 CALM 30.20S OAKDALE SUNNY 32 32 100 CALM 30.18F OPELOUSAS FAIR 37 37 99 CALM 30.19S $$ ACROSS SOUTHWEST AND SOUTH CENTRAL LOUISIANA CITY SKY/WX TMP DP RH WIND PRES REMARKS DEQUINCY FAIR 37 36 96 CALM 30.19S SULPHUR SUNNY 40 38 91 CALM 30.19S FOG LAKE CHARLES CLEAR 42 41 96 CALM 30.19R FOG CHENNAULT INT CLEAR 39 39 100 CALM 30.18S JENNINGS FAIR 43 43 100 CALM 30.19S FOG LAFAYETTE CLEAR 41 38 89 CALM 30.19S NEW IBERIA CLEAR 44 40 85 CALM 30.20S ABBEVILLE FAIR 40 38 92 CALM 30.20R FOG PATTERSON CLEAR 43 43 100 CALM 30.19S FOG SALT POINT N/A 46 42 86 CALM 30.17S $$ SELECTED SITES ACROSS THE REGION CITY SKY/WX TMP DP RH WIND PRES REMARKS HOUSTON BUSH PTCLDY 43 39 86 CALM 30.17R HOUSTON HOBBY PTCLDY 46 41 82 E3 30.16R GALVESTON CLEAR 50 47 89 CALM 30.17R COLLEGE STAT CLEAR 45 38 76 CALM 30.17R CONROE CLEAR 35 33 92 NW3 30.18R HUNTSVILLE CLEAR 43 40 89 CALM 30.17R LUFKIN CLEAR 38 38 100 CALM 30.18R SHREVEPORT CLEAR 39 34 82 CALM 30.18R MONROE CLEAR 38 37 97 CALM 30.18F NATCHEZ MS CLEAR 35 33 92 CALM 30.19S BATON ROUGE CLEAR 40 37 89 CALM 30.18S N.O. INTL ARPT CLEAR 50 44 80 CALM 30.19R SLIDELL CLEAR 39 36 89 CALM 30.18R $$ MARINE REPORTS STATION/POSITION TIME SKY/WX TEMP WIND PRES VSBY AIR SEA DIR/SP/G (UTC) (F) (DEG/KT/KT) (MB) (MI) BUOY 30 S HIGH I 1250 58 60 100/ 4/ 6 1021.3R SEA RIM ST PARK 1300 50 30/ 3/ 3 1021.9R PORT ARTHUR 1230 49 58 CALM / 1 1021.4F TEXAS POINT 1230 49 58 50/ 6/ 6 1019.9F CALCASIEU PASS 1230 52 58 40/ 4/ 5 1020.0S LK CHARLES BEACH 1230 45 59 1021.8F MARSH ISLAND NOT AVBL FRESH WATER LOCK 1224 310/ 5/ 6 N/A AMERADA PASS 1230 47 47 20/ 4/ 5 1022.0R $$

USA.gov is the U.S. government's official web portal to all federal, state and local government web resources and services.